| time (UTC) | temp C | wind direction | speed KPH | gust KPH | rain 1hr cm | rain 24hr cm | rain mn cm | humidity % | barometer mb |
| 20260507210600 | 13 | 264 | 0.0 | 0.0 | 0.00 | 0.15 | 0.15 | 87 | 1016.2 |
| 20260507210057 | 13 | 264 | 0.0 | 0.0 | 0.00 | 0.15 | 0.15 | 86 | 1015.8 |
| 20260507205058 | 13 | 264 | 0.0 | 0.0 | 0.00 | 0.15 | 0.15 | 86 | 1016.0 |
| 20260507204559 | 13 | 264 | 0.0 | 0.0 | 0.00 | 0.15 | 0.15 | 86 | 1016.0 |
| 20260507204058 | 13 | 264 | 0.0 | 0.0 | 0.00 | 0.15 | 0.15 | 86 | 1016.0 |
| 20260507203557 | 14 | 51 | 0.0 | 0.0 | 0.00 | 0.15 | 0.15 | 86 | 1016.0 |
| 20260507203100 | 14 | 52 | 0.0 | 0.0 | 0.00 | 0.15 | 0.15 | 85 | 1015.9 |
| 20260507202057 | 14 | 51 | 0.0 | 0.0 | 0.00 | 0.15 | 0.15 | 84 | 1016.1 |
| 20260507201046 | 15 | 51 | 0.0 | 0.0 | 0.00 | 0.15 | 0.15 | 84 | 1015.5 |
| 20260507200040 | 15 | 51 | 0.0 | 1.6 | 0.00 | 0.15 | 0.15 | 83 | 1015.7 |
| 20260507195535 | 15 | 321 | 0.0 | 0.0 | 0.00 | 0.15 | 0.15 | 83 | 1015.7 |
| 20260507195034 | 15 | 321 | 0.0 | 3.2 | 0.00 | 0.15 | 0.15 | 83 | 1015.7 |
| 20260507194534 | 15 | 303 | 0.0 | 3.2 | 0.00 | 0.15 | 0.15 | 83 | 1015.6 |
| 20260507193534 | 15 | 292 | 0.0 | 3.2 | 0.00 | 0.15 | 0.15 | 82 | 1015.4 |
| 20260507193035 | 15 | 210 | 0.0 | 3.2 | 0.00 | 0.15 | 0.15 | 83 | 1015.7 |
| 20260507192537 | 15 | 192 | 0.0 | 3.2 | 0.00 | 0.15 | 0.15 | 83 | 1015.6 |
| 20260507192036 | 15 | 257 | 0.0 | 3.2 | 0.00 | 0.15 | 0.15 | 83 | 1015.4 |
| 20260507191536 | 15 | 281 | 0.0 | 3.2 | 0.00 | 0.15 | 0.15 | 83 | 1015.4 |
| 20260507191018 | 15 | 274 | 0.0 | 3.2 | 0.00 | 0.15 | 0.15 | 84 | 1015.4 |
| 20260507190011 | 15 | 289 | 1.6 | 4.8 | 0.00 | 0.15 | 0.15 | 84 | 1015.5 |
| 20260507185012 | 15 | 264 | 3.2 | 4.8 | 0.00 | 0.15 | 0.15 | 84 | 1015.5 |
| 20260507184509 | 15 | 273 | 1.6 | 4.8 | 0.00 | 0.15 | 0.15 | 85 | 1015.3 |
| 20260507183513 | 15 | 252 | 1.6 | 3.2 | 0.00 | 0.15 | 0.15 | 86 | 1015.3 |
| 20260507183010 | 15 | 287 | 0.0 | 0.0 | 0.00 | 0.15 | 0.15 | 86 | 1015.1 |
| 20260507182510 | 15 | 287 | 0.0 | 0.0 | 0.00 | 0.15 | 0.15 | 85 | 1015.2 |
| 20260507181514 | 15 | 287 | 0.0 | 3.2 | 0.00 | 0.15 | 0.15 | 86 | 1015.2 |
| 20260507181010 | 15 | 252 | 0.0 | 3.2 | 0.00 | 0.15 | 0.15 | 86 | 1015.1 |
| 20260507180514 | 15 | 318 | 0.0 | 0.0 | 0.00 | 0.15 | 0.15 | 86 | 1014.7 |
| 20260507180010 | 15 | 55 | 0.0 | 9.7 | 0.00 | 0.15 | 0.15 | 86 | 1014.9 |
| 20260507175510 | 15 | 181 | 0.0 | 9.7 | 0.00 | 0.15 | 0.15 | 87 | 1014.7 |
| 20260507175013 | 15 | 124 | 3.2 | 6.4 | 0.00 | 0.15 | 0.15 | 87 | 1014.5 |
| 20260507174511 | 15 | 281 | 0.0 | 0.0 | 0.00 | 0.15 | 0.15 | 87 | 1014.6 |
| 20260507174010 | 15 | 281 | 0.0 | 0.0 | 0.00 | 0.15 | 0.15 | 87 | 1014.5 |
| 20260507173512 | 15 | 281 | 0.0 | 3.2 | 0.00 | 0.15 | 0.15 | 86 | 1014.3 |
| 20260507173010 | 15 | 281 | 0.0 | 3.2 | 0.00 | 0.15 | 0.15 | 86 | 1014.4 |
| 20260507172022 | 15 | 281 | 0.0 | 3.2 | 0.00 | 0.15 | 0.15 | 84 | 1014.3 |
| 20260507171510 | 16 | 281 | 1.6 | 3.2 | 0.03 | 0.15 | 0.15 | 84 | 1014.3 |
| 20260507171009 | 16 | 281 | 3.2 | 3.2 | 0.03 | 0.15 | 0.15 | 83 | 1014.4 |
| 20260507170512 | 16 | 166 | 0.0 | 0.0 | 0.03 | 0.15 | 0.15 | 82 | 1014.2 |
| 20260507170009 | 16 | 140 | 0.0 | 1.6 | 0.03 | 0.15 | 0.15 | 82 | 1014.1 |
| 20260507165509 | 16 | 166 | 0.0 | 3.2 | 0.03 | 0.15 | 0.15 | 81 | 1014.1 |
| 20260507165011 | 16 | 157 | 0.0 | 4.8 | 0.03 | 0.15 | 0.15 | 81 | 1014.4 |
| 20260507164009 | 16 | 169 | 1.6 | 11.3 | 0.03 | 0.15 | 0.15 | 79 | 1014.3 |
| 20260507163512 | 16 | 240 | 0.0 | 9.7 | 0.03 | 0.15 | 0.15 | 79 | 1014.4 |
| 20260507163008 | 16 | 101 | 6.4 | 9.7 | 0.03 | 0.15 | 0.15 | 78 | 1014.6 |
| 20260507162008 | 16 | 170 | 0.0 | 1.6 | 0.00 | 0.15 | 0.15 | 77 | 1014.5 |
| 20260507161007 | 17 | 87 | 1.6 | 6.4 | 0.00 | 0.15 | 0.13 | 75 | 1014.6 |
| 20260507160509 | 17 | 98 | 1.6 | 6.4 | 0.00 | 0.15 | 0.13 | 75 | 1014.3 |
| 20260507160010 | 17 | 84 | 1.6 | 4.8 | 0.00 | 0.15 | 0.13 | 74 | 1014.3 |
| 20260507155509 | 17 | 284 | 0.0 | 4.8 | 0.00 | 0.15 | 0.13 | 73 | 1014.1 |
| 20260507155009 | 17 | 162 | 0.0 | 3.2 | 0.00 | 0.15 | 0.13 | 78 | 1014.3 |
| 20260507154510 | 17 | 122 | 1.6 | 3.2 | 0.00 | 0.15 | 0.13 | 79 | 1014.3 |
| 20260507154010 | 17 | 122 | 1.6 | 3.2 | 0.03 | 0.15 | 0.13 | 79 | 1014.2 |
| 20260507153513 | 17 | 119 | 0.0 | 3.2 | 0.05 | 0.15 | 0.13 | 80 | 1014.3 |
| 20260507153010 | 17 | 55 | 0.0 | 3.2 | 0.05 | 0.15 | 0.13 | 80 | 1014.3 |
| 20260507152511 | 17 | 100 | 1.6 | 3.2 | 0.05 | 0.15 | 0.13 | 79 | 1014.3 |
| 20260507152009 | 17 | 260 | 0.0 | 4.8 | 0.05 | 0.15 | 0.13 | 79 | 1014.3 |
| 20260507151509 | 17 | 132 | 0.0 | 4.8 | 0.05 | 0.15 | 0.13 | 80 | 1014.6 |
| 20260507151009 | 17 | 267 | 0.0 | 4.8 | 0.05 | 0.15 | 0.13 | 79 | 1014.4 |
| 20260507150508 | 17 | 339 | 3.2 | 4.8 | 0.05 | 0.15 | 0.13 | 79 | 1014.4 |
| 20260507145510 | 17 | 291 | 1.6 | 6.4 | 0.05 | 0.15 | 0.13 | 78 | 1014.6 |
| 20260507145008 | 17 | 250 | 3.2 | 4.8 | 0.05 | 0.15 | 0.13 | 77 | 1014.5 |
| 20260507144510 | 17 | 276 | 1.6 | 4.8 | 0.05 | 0.13 | 0.13 | 76 | 1014.4 |
| 20260507144011 | 17 | 255 | 1.6 | 6.4 | 0.03 | 0.10 | 0.10 | 75 | 1014.4 |
| 20260507143509 | 18 | 281 | 1.6 | 6.4 | 0.00 | 0.10 | 0.10 | 72 | 1014.5 |
| 20260507143000 | 18 | 327 | 3.2 | 6.4 | 0.00 | 0.10 | 0.08 | 71 | 1014.4 |
| 20260507142502 | 18 | 60 | 1.6 | 6.4 | 0.00 | 0.08 | 0.08 | 71 | 1014.6 |
| 20260507142000 | 18 | 316 | 1.6 | 3.2 | 0.00 | 0.08 | 0.08 | 71 | 1014.6 |
| 20260507141002 | 18 | 243 | 3.2 | 9.7 | 0.00 | 0.08 | 0.08 | 67 | 1014.3 |
| 20260507140501 | 18 | 283 | 0.0 | 14.5 | 0.00 | 0.08 | 0.08 | 66 | 1014.4 |
| 20260507140004 | 19 | 234 | 9.7 | 16.1 | 0.00 | 0.08 | 0.08 | 65 | 1014.4 |
| 20260507135502 | 19 | 5 | 3.2 | 16.1 | 0.00 | 0.08 | 0.08 | 64 | 1014.2 |
| 20260507135001 | 20 | 210 | 3.2 | 11.3 | 0.00 | 0.08 | 0.08 | 63 | 1014.2 |
| 20260507134501 | 20 | 235 | 4.8 | 6.4 | 0.00 | 0.08 | 0.08 | 61 | 1014.3 |
| 20260507134002 | 20 | 260 | 3.2 | 11.3 | 0.00 | 0.08 | 0.08 | 60 | 1014.2 |
| 20260507133459 | 20 | 299 | 0.0 | 16.1 | 0.00 | 0.08 | 0.08 | 59 | 1014.2 |
| 20260507133002 | 20 | 330 | 0.0 | 16.1 | 0.00 | 0.08 | 0.08 | 58 | 1014.1 |
| 20260507132502 | 20 | 275 | 3.2 | 6.4 | 0.00 | 0.08 | 0.08 | 58 | 1014.0 |
| 20260507132000 | 20 | 222 | 0.0 | 4.8 | 0.00 | 0.08 | 0.08 | 58 | 1014.1 |
| 20260507131459 | 20 | 15 | 1.6 | 4.8 | 0.00 | 0.08 | 0.08 | 59 | 1013.9 |
| 20260507131004 | 20 | 283 | 0.0 | 4.8 | 0.00 | 0.08 | 0.08 | 59 | 1014.1 |
| 20260507130501 | 20 | 139 | 1.6 | 1.6 | 0.00 | 0.08 | 0.08 | 60 | 1014.0 |
| 20260507125959 | 20 | 144 | 0.0 | 4.8 | 0.00 | 0.08 | 0.08 | 58 | 1013.9 |
| 20260507125502 | 20 | 286 | 0.0 | 4.8 | 0.00 | 0.08 | 0.08 | 57 | 1014.1 |
| 20260507125001 | 20 | 258 | 0.0 | 6.4 | 0.00 | 0.08 | 0.08 | 57 | 1014.1 |
| 20260507124002 | 20 | 357 | 3.2 | 9.7 | 0.00 | 0.08 | 0.08 | 58 | 1014.1 |
| 20260507123459 | 20 | 190 | 1.6 | 6.4 | 0.00 | 0.08 | 0.08 | 56 | 1013.8 |
| 20260507123000 | 21 | 124 | 0.0 | 4.8 | 0.00 | 0.08 | 0.08 | 57 | 1014.1 |
| 20260507122504 | 21 | 51 | 1.6 | 4.8 | 0.00 | 0.08 | 0.08 | 58 | 1013.8 |
| 20260507122000 | 21 | 70 | 0.0 | 6.4 | 0.00 | 0.08 | 0.08 | 58 | 1013.8 |
| 20260507121500 | 21 | 84 | 1.6 | 17.7 | 0.00 | 0.08 | 0.08 | 57 | 1014.1 |
| 20260507121004 | 21 | 11 | 3.2 | 17.7 | 0.00 | 0.08 | 0.08 | 56 | 1014.1 |
| 20260507120501 | 21 | 213 | 3.2 | 11.3 | 0.00 | 0.08 | 0.08 | 56 | 1014.1 |
| 20260507120000 | 21 | 219 | 3.2 | 6.4 | 0.00 | 0.08 | 0.08 | 56 | 1014.0 |
| 20260507115502 | 21 | 284 | 1.6 | 6.4 | 0.00 | 0.08 | 0.08 | 56 | 1014.2 |
| 20260507115001 | 21 | 287 | 3.2 | 6.4 | 0.00 | 0.08 | 0.08 | 56 | 1014.2 |
| 20260507114500 | 21 | 89 | 1.6 | 9.7 | 0.00 | 0.08 | 0.08 | 56 | 1014.3 |
| 20260507114002 | 21 | 225 | 4.8 | 9.7 | 0.00 | 0.08 | 0.08 | 56 | 1014.0 |
| 20260507113459 | 21 | 211 | 0.0 | 6.4 | 0.00 | 0.08 | 0.08 | 55 | 1014.0 |
| 20260507113000 | 21 | 209 | 3.2 | 4.8 | 0.00 | 0.08 | 0.08 | 55 | 1014.0 |
| 20260507112502 | 21 | 101 | 1.6 | 9.7 | 0.00 | 0.08 | 0.08 | 55 | 1013.9 |
| 20260507112000 | 21 | 5 | 1.6 | 9.7 | 0.00 | 0.08 | 0.08 | 53 | 1014.2 |
| 20260507111502 | 21 | 336 | 6.4 | 14.5 | 0.00 | 0.08 | 0.08 | 53 | 1014.0 |
| 20260507111002 | 22 | 342 | 8.0 | 14.5 | 0.00 | 0.08 | 0.08 | 52 | 1014.0 |
| 20260507110501 | 22 | 222 | 4.8 | 12.9 | 0.00 | 0.08 | 0.08 | 51 | 1014.1 |
| 20260507110000 | 22 | 342 | 6.4 | 9.7 | 0.00 | 0.08 | 0.08 | 54 | 1013.9 |
| 20260507105501 | 22 | 254 | 1.6 | 22.5 | 0.00 | 0.08 | 0.08 | 55 | 1014.0 |
| 20260507105000 | 22 | 236 | 3.2 | 22.5 | 0.00 | 0.08 | 0.08 | 55 | 1014.1 |
| 20260507104459 | 21 | 119 | 9.7 | 16.1 | 0.00 | 0.08 | 0.08 | 55 | 1013.9 |
| 20260507104001 | 21 | 104 | 4.8 | 12.9 | 0.00 | 0.08 | 0.08 | 54 | 1014.2 |
| 20260507103500 | 22 | 326 | 8.0 | 12.9 | 0.00 | 0.08 | 0.08 | 54 | 1014.3 |
| 20260507103000 | 21 | 258 | 4.8 | 12.9 | 0.00 | 0.08 | 0.08 | 55 | 1014.2 |
| 20260507102502 | 21 | 123 | 6.4 | 14.5 | 0.00 | 0.08 | 0.08 | 56 | 1014.1 |
| 20260507102003 | 21 | 261 | 1.6 | 17.7 | 0.00 | 0.08 | 0.08 | 57 | 1014.1 |
| 20260507101458 | 21 | 188 | 9.7 | 17.7 | 0.00 | 0.08 | 0.08 | 57 | 1014.5 |
| 20260507101003 | 21 | 293 | 9.7 | 14.5 | 0.00 | 0.08 | 0.08 | 59 | 1014.2 |
| 20260507100500 | 21 | 169 | 8.0 | 16.1 | 0.00 | 0.08 | 0.08 | 57 | 1014.1 |
| 20260507095959 | 21 | 261 | 4.8 | 16.1 | 0.00 | 0.08 | 0.08 | 59 | 1014.2 |
| 20260507094958 | 20 | 137 | 1.6 | 6.4 | 0.00 | 0.08 | 0.08 | 61 | 1014.0 |
| 20260507094001 | 20 | 93 | 3.2 | 9.7 | 0.00 | 0.08 | 0.08 | 62 | 1014.1 |
| 20260507093000 | 20 | 81 | 1.6 | 11.3 | 0.00 | 0.08 | 0.08 | 62 | 1014.0 |
| 20260507091958 | 20 | 1 | 0.0 | 4.8 | 0.00 | 0.08 | 0.08 | 64 | 1014.1 |
| 20260507091459 | 20 | 275 | 3.2 | 4.8 | 0.00 | 0.08 | 0.08 | 64 | 1014.1 |
| 20260507091003 | 20 | 84 | 0.0 | 6.4 | 0.00 | 0.08 | 0.08 | 63 | 1014.2 |
| 20260507090457 | 20 | 325 | 0.0 | 11.3 | 0.00 | 0.08 | 0.08 | 64 | 1014.3 |
| 20260507085958 | 19 | 116 | 1.6 | 16.1 | 0.00 | 0.08 | 0.08 | 64 | 1014.0 |
| 20260507084959 | 19 | 70 | 1.6 | 11.3 | 0.00 | 0.08 | 0.08 | 66 | 1014.2 |
| 20260507083957 | 18 | 225 | 11.3 | 12.9 | 0.00 | 0.08 | 0.08 | 68 | 1014.0 |
| 20260507082959 | 18 | 113 | 1.6 | 12.9 | 0.00 | 0.08 | 0.08 | 69 | 1013.8 |
| 20260507081958 | 18 | 123 | 0.0 | 9.7 | 0.00 | 0.08 | 0.08 | 68 | 1013.9 |
| 20260507081457 | 18 | 129 | 3.2 | 9.7 | 0.00 | 0.08 | 0.08 | 68 | 1013.9 |
| 20260507080957 | 18 | 130 | 3.2 | 4.8 | 0.00 | 0.08 | 0.08 | 69 | 1013.7 |
| 20260507080459 | 18 | 84 | 1.6 | 3.2 | 0.00 | 0.08 | 0.08 | 69 | 1013.9 |
| 20260507075957 | 18 | 41 | 1.6 | 3.2 | 0.00 | 0.08 | 0.08 | 71 | 1013.7 |
| 20260507075458 | 18 | 343 | 0.0 | 3.2 | 0.00 | 0.08 | 0.08 | 70 | 1013.7 |
| 20260507074958 | 18 | 88 | 0.0 | 4.8 | 0.00 | 0.08 | 0.08 | 69 | 1013.6 |
| 20260507074458 | 18 | 29 | 1.6 | 4.8 | 0.00 | 0.08 | 0.08 | 70 | 1013.6 |
| 20260507073957 | 18 | 112 | 1.6 | 9.7 | 0.00 | 0.08 | 0.08 | 68 | 1013.7 |
| 20260507073459 | 18 | 40 | 1.6 | 9.7 | 0.00 | 0.08 | 0.08 | 69 | 1013.5 |
| 20260507072957 | 18 | 224 | 4.8 | 12.9 | 0.00 | 0.08 | 0.08 | 68 | 1013.7 |
| 20260507072458 | 18 | 126 | 0.0 | 12.9 | 0.00 | 0.08 | 0.08 | 67 | 1013.4 |
| 20260507071959 | 18 | 299 | 6.4 | 12.9 | 0.00 | 0.08 | 0.08 | 69 | 1013.5 |
| 20260507071457 | 18 | 193 | 3.2 | 6.4 | 0.00 | 0.08 | 0.08 | 69 | 1013.5 |
| 20260507070958 | 18 | 7 | 1.6 | 6.4 | 0.00 | 0.08 | 0.08 | 71 | 1013.5 |
| 20260507070500 | 17 | 232 | 1.6 | 6.4 | 0.00 | 0.08 | 0.08 | 72 | 1013.7 |
| 20260507065956 | 17 | 308 | 1.6 | 6.4 | 0.00 | 0.08 | 0.08 | 71 | 1013.4 |
| 20260507065457 | 17 | 297 | 0.0 | 6.4 | 0.00 | 0.08 | 0.08 | 72 | 1013.4 |
| 20260507065015 | 17 | 142 | 3.2 | 6.4 | 0.00 | 0.08 | 0.08 | 71 | 1013.3 |
| 20260507064457 | 17 | 154 | 3.2 | 4.8 | 0.00 | 0.08 | 0.08 | 73 | 1013.7 |
| 20260507063957 | 17 | 110 | 0.0 | 4.8 | 0.00 | 0.08 | 0.08 | 74 | 1013.4 |
| 20260507063501 | 17 | 141 | 1.6 | 3.2 | 0.00 | 0.08 | 0.08 | 74 | 1013.2 |
| 20260507062958 | 17 | 133 | 0.0 | 3.2 | 0.00 | 0.08 | 0.08 | 73 | 1013.4 |
| 20260507062457 | 17 | 101 | 1.6 | 4.8 | 0.00 | 0.08 | 0.08 | 73 | 1013.2 |
| 20260507061959 | 17 | 235 | 4.8 | 4.8 | 0.00 | 0.08 | 0.08 | 74 | 1013.3 |
| 20260507060957 | 16 | 219 | 6.4 | 12.9 | 0.00 | 0.08 | 0.08 | 76 | 1013.2 |
| 20260507055957 | 16 | 142 | 3.2 | 9.7 | 0.00 | 0.08 | 0.08 | 76 | 1013.0 |
| 20260507055458 | 16 | 214 | 3.2 | 9.7 | 0.00 | 0.08 | 0.08 | 76 | 1013.2 |
| 20260507055001 | 16 | 160 | 3.2 | 9.7 | 0.00 | 0.08 | 0.08 | 77 | 1012.9 |
| 20260507054457 | 16 | 89 | 0.0 | 9.7 | 0.00 | 0.08 | 0.08 | 77 | 1013.2 |
| 20260507053956 | 16 | 224 | 3.2 | 9.7 | 0.00 | 0.08 | 0.08 | 77 | 1012.9 |
| 20260507053459 | 16 | 181 | 0.0 | 6.4 | 0.00 | 0.08 | 0.08 | 79 | 1013.1 |
| 20260507052500 | 16 | 107 | 0.0 | 0.0 | 0.00 | 0.08 | 0.08 | 81 | 1012.8 |
| 20260507052000 | 16 | 107 | 0.0 | 1.6 | 0.00 | 0.08 | 0.08 | 80 | 1012.7 |
| 20260507051458 | 16 | 107 | 0.0 | 1.6 | 0.00 | 0.08 | 0.08 | 80 | 1012.8 |
| 20260507050959 | 16 | 107 | 0.0 | 3.2 | 0.00 | 0.08 | 0.08 | 80 | 1012.5 |
| 20260507050500 | 16 | 107 | 0.0 | 4.8 | 0.00 | 0.08 | 0.08 | 80 | 1012.6 |
| 20260507045959 | 15 | 98 | 1.6 | 4.8 | 0.00 | 0.08 | 0.08 | 80 | 1012.6 |
| 20260507045458 | 15 | 78 | 1.6 | 4.8 | 0.00 | 0.08 | 0.08 | 80 | 1012.5 |
| 20260507045000 | 15 | 94 | 1.6 | 6.4 | 0.00 | 0.08 | 0.08 | 81 | 1012.4 |
| 20260507044459 | 15 | 158 | 1.6 | 9.7 | 0.00 | 0.08 | 0.08 | 81 | 1012.1 |
| 20260507043501 | 15 | 254 | 4.8 | 11.3 | 0.00 | 0.08 | 0.08 | 83 | 1012.3 |
| 20260507042959 | 15 | 225 | 0.0 | 6.4 | 0.00 | 0.08 | 0.08 | 84 | 1012.1 |
| 20260507042458 | 15 | 238 | 1.6 | 4.8 | 0.00 | 0.08 | 0.08 | 85 | 1012.0 |
| 20260507041946 | 15 | 271 | 3.2 | 4.8 | 0.00 | 0.08 | 0.08 | 85 | 1012.2 |
| 20260507041446 | 15 | 293 | 3.2 | 4.8 | 0.00 | 0.08 | 0.08 | 85 | 1011.9 |
| 20260507040949 | 15 | 274 | 0.0 | 4.8 | 0.00 | 0.08 | 0.08 | 85 | 1012.2 |
| 20260507040444 | 15 | 270 | 1.6 | 6.4 | 0.00 | 0.08 | 0.08 | 85 | 1012.0 |
| 20260507035945 | 14 | 255 | 1.6 | 6.4 | 0.00 | 0.08 | 0.08 | 85 | 1012.1 |
| 20260507035448 | 14 | 229 | 3.2 | 6.4 | 0.00 | 0.08 | 0.08 | 86 | 1012.1 |
| 20260507034944 | 14 | 229 | 4.8 | 6.4 | 0.00 | 0.08 | 0.08 | 86 | 1012.0 |
| 20260507033947 | 14 | 239 | 3.2 | 6.4 | 0.00 | 0.08 | 0.08 | 87 | 1011.8 |
| 20260507033445 | 14 | 256 | 0.0 | 6.4 | 0.00 | 0.08 | 0.08 | 88 | 1011.8 |
| 20260507032948 | 14 | 170 | 0.0 | 6.4 | 0.00 | 0.08 | 0.08 | 90 | 1011.5 |
| 20260507031944 | 13 | 197 | 0.0 | 4.8 | 0.00 | 0.08 | 0.08 | 91 | 1011.6 |
| 20260507030445 | 13 | 129 | 0.0 | 3.2 | 0.00 | 0.08 | 0.08 | 90 | 1011.6 |
| 20260507025448 | 13 | 16 | 0.0 | 0.0 | 0.00 | 0.08 | 0.08 | 89 | 1011.5 |
| 20260507024947 | 13 | 213 | 0.0 | 0.0 | 0.00 | 0.08 | 0.08 | 89 | 1011.6 |
| 20260507024444 | 13 | 305 | 0.0 | 0.0 | 0.00 | 0.08 | 0.08 | 89 | 1011.5 |
| 20260507023449 | 13 | 316 | 0.0 | 0.0 | 0.00 | 0.08 | 0.08 | 88 | 1011.7 |
| 20260507022945 | 13 | 308 | 0.0 | 1.6 | 0.00 | 0.08 | 0.08 | 89 | 1011.6 |
| 20260507022440 | 13 | 228 | 0.0 | 3.2 | 0.00 | 0.08 | 0.08 | 89 | 1011.6 |
| 20260507021933 | 13 | 118 | 3.2 | 3.2 | 0.00 | 0.08 | 0.08 | 89 | 1011.5 |
| 20260507021436 | 13 | 339 | 0.0 | 3.2 | 0.00 | 0.08 | 0.08 | 88 | 1011.8 |
| 20260507020933 | 14 | 279 | 1.6 | 3.2 | 0.00 | 0.08 | 0.08 | 87 | 1011.6 |
| 20260507020433 | 14 | 329 | 0.0 | 3.2 | 0.00 | 0.08 | 0.08 | 87 | 1011.7 |
| 20260507015938 | 14 | 330 | 0.0 | 0.0 | 0.00 | 0.08 | 0.08 | 87 | 1011.6 |
| 20260507015432 | 14 | 330 | 0.0 | 0.0 | 0.00 | 0.08 | 0.08 | 86 | 1011.7 |
| 20260507014932 | 15 | 330 | 0.0 | 0.0 | 0.00 | 0.08 | 0.08 | 86 | 1011.8 |
| 20260507014435 | 15 | 330 | 0.0 | 6.4 | 0.00 | 0.08 | 0.08 | 86 | 1011.7 |
| 20260507013932 | 15 | 330 | 0.0 | 6.4 | 0.00 | 0.08 | 0.08 | 86 | 1011.9 |
| 20260507012935 | 15 | 255 | 0.0 | 0.0 | 0.00 | 0.08 | 0.08 | 84 | 1011.9 |
| 20260507012433 | 15 | 255 | 0.0 | 0.0 | 0.00 | 0.08 | 0.08 | 84 | 1011.8 |
| 20260507011935 | 15 | 255 | 0.0 | 0.0 | 0.00 | 0.08 | 0.08 | 84 | 1011.8 |
| 20260507011435 | 15 | 253 | 0.0 | 0.0 | 0.00 | 0.08 | 0.08 | 83 | 1011.8 |
| 20260507010932 | 15 | 241 | 0.0 | 0.0 | 0.00 | 0.08 | 0.08 | 83 | 1011.7 |
| 20260507010434 | 16 | 170 | 0.0 | 0.0 | 0.00 | 0.08 | 0.08 | 82 | 1011.8 |
| 20260507005433 | 16 | 213 | 0.0 | 3.2 | 0.00 | 0.08 | 0.08 | 80 | 1011.8 |
| 20260507004423 | 17 | 260 | 0.0 | 4.8 | 0.00 | 0.08 | 0.08 | 77 | 1011.6 |
| 20260507003921 | 17 | 102 | 3.2 | 11.3 | 0.00 | 0.08 | 0.08 | 74 | 1011.9 |
| 20260507002922 | 17 | 91 | 6.4 | 16.1 | 0.00 | 0.08 | 0.08 | 75 | 1011.8 |
| 20260507002421 | 16 | 229 | 0.0 | 16.1 | 0.00 | 0.08 | 0.08 | 76 | 1011.7 |
| 20260507001925 | 16 | 223 | 3.2 | 9.7 | 0.00 | 0.08 | 0.08 | 77 | 1011.8 |
| 20260507001417 | 17 | 111 | 4.8 | 6.4 | 0.00 | 0.08 | 0.08 | 77 | 1011.9 |
| 20260507000917 | 17 | 84 | 1.6 | 9.7 | 0.00 | 0.08 | 0.08 | 77 | 1011.8 |
| 20260507000409 | 17 | 216 | 6.4 | 9.7 | 0.03 | 0.08 | 0.08 | 77 | 1011.8 |
| 20260506235909 | 17 | 105 | 0.0 | 6.4 | 0.03 | 0.08 | 0.08 | 77 | 1011.9 |
| 20260506235417 | 17 | 107 | 1.6 | 6.4 | 0.03 | 0.08 | 0.08 | 77 | 1012.1 |
| 20260506234909 | 16 | 309 | 3.2 | 6.4 | 0.05 | 0.08 | 0.08 | 78 | 1012.1 |
| 20260506234410 | 16 | 98 | 1.6 | 9.7 | 0.08 | 0.08 | 0.08 | 80 | 1011.7 |
| 20260506233911 | 16 | 121 | 1.6 | 9.7 | 0.08 | 0.08 | 0.08 | 80 | 1012.1 |
| 20260506233409 | 16 | 114 | 1.6 | 9.7 | 0.08 | 0.08 | 0.08 | 80 | 1011.8 |
| 20260506232412 | 16 | 134 | 3.2 | 27.4 | 0.08 | 0.08 | 0.08 | 81 | 1012.1 |
| 20260506231408 | 16 | 63 | 3.2 | 22.5 | 0.08 | 0.08 | 0.08 | 81 | 1012.2 |
| 20260506230911 | 17 | 137 | 1.6 | 11.3 | 0.05 | 0.08 | 0.05 | 79 | 1012.2 |
| 20260506230409 | 17 | 80 | 1.6 | 14.5 | 0.05 | 0.05 | 0.05 | 78 | 1012.4 |
| 20260506225913 | 17 | 5 | 3.2 | 14.5 | 0.05 | 0.05 | 0.05 | 75 | 1012.1 |
| 20260506225411 | 18 | 166 | 1.6 | 11.3 | 0.05 | 0.05 | 0.05 | 74 | 1012.2 |
| 20260506224909 | 18 | 169 | 3.2 | 22.5 | 0.00 | 0.03 | 0.00 | 71 | 1012.1 |
| 20260506224408 | 18 | 121 | 1.6 | 22.5 | 0.00 | 0.00 | 0.00 | 71 | 1012.1 |
| 20260506223911 | 18 | 135 | 4.8 | 6.4 | 0.00 | 0.00 | 0.00 | 70 | 1011.9 |
| 20260506223410 | 18 | 352 | 3.2 | 6.4 | 0.00 | 0.00 | 0.00 | 71 | 1011.6 |
| 20260506222908 | 18 | 17 | 1.6 | 9.7 | 0.00 | 0.00 | 0.00 | 70 | 1011.7 |
| 20260506222412 | 18 | 145 | 0.0 | 9.7 | 0.00 | 0.00 | 0.00 | 69 | 1011.5 |
| 20260506221908 | 18 | 48 | 3.2 | 12.9 | 0.00 | 0.00 | 0.00 | 68 | 1011.5 |
| 20260506221409 | 18 | 226 | 3.2 | 14.5 | 0.00 | 0.00 | 0.00 | 68 | 1011.6 |
| 20260506220913 | 18 | 137 | 6.4 | 14.5 | 0.00 | 0.00 | 0.00 | 68 | 1011.7 |
| 20260506220410 | 18 | 152 | 3.2 | 16.1 | 0.00 | 0.00 | 0.00 | 69 | 1011.6 |
| 20260506215412 | 17 | 210 | 12.9 | 20.9 | 0.00 | 0.00 | 0.00 | 73 | 1011.8 |
| 20260506214359 | 17 | 288 | 0.0 | 6.4 | 0.00 | 0.00 | 0.00 | 76 | 1011.6 |
| 20260506213358 | 17 | 269 | 0.0 | 0.0 | 0.00 | 0.00 | 0.00 | 75 | 1011.6 |
| 20260506212356 | 18 | 275 | 0.0 | 3.2 | 0.00 | 0.00 | 0.00 | 72 | 1011.5 |
| 20260506211858 | 18 | 275 | 0.0 | 11.3 | 0.00 | 0.00 | 0.00 | 72 | 1011.5 |
| 20260506211359 | 18 | 175 | 1.6 | 11.3 | 0.00 | 0.00 | 0.00 | 70 | 1011.3 |
| 20260506210845 | 18 | 115 | 1.6 | 9.7 | 0.00 | 0.00 | 0.00 | 71 | 1011.3 |